Bartow, Florida, United States (33830)
Lat: 27.90N, Lon: 81.84W
Wx Zone: FLZ052
Local Info
Past Weather Observations for Monday, July 27, 2015

NOTE: This archive is for the closest National Weather Service station to Bartow. Information may differ from the station used for current weather conditions.

Click here for Long-term Archive

Time Weather Temperature Dewpoint Humidity Pressure Winds Precip Visibility
23:55
Mostly Cloudy
75°F / 24°C 75°F / 24°C 100% 29.98 in
(1015 mb)
Calm - 10SM
23:35
Partly Cloudy
75°F / 24°C 75°F / 24°C 100% 29.98 in
(1015 mb)
Calm - 10SM
23:15
Clear
75°F / 24°C 75°F / 24°C 100% 29.98 in
(1015 mb)
Calm - 10SM
22:55
Clear
75°F / 24°C 75°F / 24°C 100% 29.98 in
(1015 mb)
Calm - 10SM
22:35
Clear
75°F / 24°C 75°F / 24°C 100% 29.98 in
(1015 mb)
Calm - 10SM
22:15
Clear
75°F / 24°C 75°F / 24°C 100% 29.98 in
(1015 mb)
Calm - 10SM
21:55
Clear
75°F / 24°C 75°F / 24°C 100% 29.98 in
(1015 mb)
Calm - 10SM
21:35
Clear
75°F / 24°C 75°F / 24°C 100% 29.98 in
(1015 mb)
Calm - 10SM
21:15
Clear
75°F / 24°C 75°F / 24°C 100% 29.98 in
(1015 mb)
Calm - 10SM
20:55
Clear
75°F / 24°C 75°F / 24°C 100% 29.98 in
(1015 mb)
S 5.8 mph
(S 9 kph)
- 10SM
20:35
Clear
75°F / 24°C 75°F / 24°C 100% 29.98 in
(1015 mb)
Calm - 10SM
20:15
Clear
75°F / 24°C 75°F / 24°C 100% 29.95 in
(1014 mb)
Calm - 10SM
19:55
Clear
75°F / 24°C 75°F / 24°C 100% 29.95 in
(1014 mb)
Calm - 10SM
19:35
Clear
75°F / 24°C 75°F / 24°C 100% 29.95 in
(1014 mb)
Calm - 10SM
19:15
Partly Cloudy
75°F / 24°C 75°F / 24°C 100% 29.95 in
(1014 mb)
Calm - 10SM
18:55
Partly Cloudy
77°F / 25°C 77°F / 25°C 100% 29.95 in
(1014 mb)
Calm - 10SM
18:35
Clear
77°F / 25°C 77°F / 25°C 100% 29.95 in
(1014 mb)
Calm - 10SM
18:15
Clear
77°F / 25°C 77°F / 25°C 100% 29.95 in
(1014 mb)
Calm - 10SM
17:55
Clear
77°F / 25°C 77°F / 25°C 100% 29.98 in
(1015 mb)
Calm - 10SM
17:35
Clear
75°F / 24°C 75°F / 24°C 100% 29.98 in
(1015 mb)
Calm - 10SM
17:15
Clear
75°F / 24°C 75°F / 24°C 100% 29.95 in
(1014 mb)
Calm - 10SM
16:55
Clear
75°F / 24°C 75°F / 24°C 100% 29.98 in
(1015 mb)
Calm - 10SM
16:35
Partly Cloudy
Light Rain
75°F / 24°C 75°F / 24°C 100% 29.98 in
(1015 mb)
SSE 4.6 mph
(SSE 7 kph)
- 9SM
15:47
Mostly Cloudy
Drizzle
77°F / 25°C 77°F / 25°C 100% 29.98 in
(1015 mb)
SSE 5.8 mph
(SSE 9 kph)
- 7SM
14:47
Mostly Cloudy
77°F / 25°C 77°F / 25°C 100% 29.98 in
(1015 mb)
SSW 10.4 mph
(SSW 17 kph)
- 10SM
13:50
Mostly Cloudy
Light Rain
77°F / 25°C 77°F / 25°C 100% 29.98 in
(1015 mb)
SSE 9.2 mph
(SSE 15 kph)
- 5SM
12:47
Overcast
Light Rain
75°F / 24°C 75°F / 24°C 100% 30.01 in
(1016 mb)
S 8.1 mph
(S 13 kph)
- 3SM
11:47
Mostly Cloudy
Showers In Vicinity
79°F / 26°C 75°F / 24°C 89% 30.01 in
(1016 mb)
SSE 18.4 mph
(SSE 30 kph)
- 7SM
10:50
Mostly Cloudy
Showers In Vicinity
79°F / 26°C 75°F / 24°C 89% 29.98 in
(1015 mb)
SSW 11.5 mph
(SSW 19 kph)
- 10SM
09:47
Mostly Cloudy
Showers In Vicinity
82°F / 28°C 75°F / 24°C 79% 29.98 in
(1015 mb)
S 5.8 mph
(S 9 kph)
- 7SM
08:47
Mostly Cloudy
79°F / 26°C 79°F / 26°C 100% 29.98 in
(1015 mb)
S 6.9 mph
(S 11 kph)
- 10SM
07:47
Mostly Cloudy
77°F / 25°C 77°F / 25°C 100% 29.95 in
(1014 mb)
SSE 8.1 mph
(SSE 13 kph)
- 7SM
07:26
Mostly Cloudy
75°F / 24°C 75°F / 24°C 100% 29.95 in
(1014 mb)
SSE 5.8 mph
(SSE 9 kph)
- 10SM
06:47
Partly Cloudy
73°F / 23°C N/A N/A 29.95 in
(1014 mb)
SE 6.9 mph
(SE 11 kph)
- 10SM
06:15
Partly Cloudy
73°F / 23°C N/A N/A 29.95 in
(1014 mb)
Calm - 8SM
05:55
Mostly Cloudy
73°F / 23°C N/A N/A 29.95 in
(1014 mb)
Calm - 9SM
05:35
Partly Cloudy
73°F / 23°C N/A N/A 29.92 in
(1013 mb)
Calm - 10SM
05:15
Clear
73°F / 23°C N/A N/A 29.92 in
(1013 mb)
Calm - 10SM
04:55
Clear
73°F / 23°C N/A N/A 29.92 in
(1013 mb)
Calm - 10SM
04:35
Partly Cloudy
73°F / 23°C N/A N/A 29.92 in
(1013 mb)
Calm - 10SM
04:15
Overcast
73°F / 23°C N/A N/A 29.92 in
(1013 mb)
Calm - 9SM
03:55
Overcast
73°F / 23°C N/A N/A 29.92 in
(1013 mb)
Calm - 10SM
03:35
Partly Cloudy
73°F / 23°C N/A N/A 29.92 in
(1013 mb)
Calm - 8SM
03:15
Partly Cloudy
73°F / 23°C N/A N/A 29.92 in
(1013 mb)
Calm - 9SM
02:55
Mostly Cloudy
73°F / 23°C N/A N/A 29.92 in
(1013 mb)
Calm - 10SM
02:35
Mostly Cloudy
73°F / 23°C N/A N/A 29.92 in
(1013 mb)
Calm - 10SM
02:15
Mostly Cloudy
73°F / 23°C N/A N/A 29.92 in
(1013 mb)
Calm - 10SM
01:55
Partly Cloudy
73°F / 23°C N/A N/A 29.92 in
(1013 mb)
Calm - 10SM
01:35
Partly Cloudy
73°F / 23°C N/A N/A 29.92 in
(1013 mb)
Calm - 10SM
01:15
Clear
73°F / 23°C N/A N/A 29.92 in
(1013 mb)
Calm - 10SM
00:55
Partly Cloudy
75°F / 24°C N/A N/A 29.92 in
(1013 mb)
Calm - 10SM
00:35
Partly Cloudy
75°F / 24°C N/A N/A 29.95 in
(1014 mb)
Calm - 10SM
00:15
Partly Cloudy
75°F / 24°C N/A N/A 29.95 in
(1014 mb)
Calm - 10SM
Time Weather Temperature Dewpoint Humidity Pressure Winds Precip Visibility


Weather for websites

WeatherForYou.com, LLC is not responsible for any damages or problems caused by this service. Current weather conditions are obtained from the closest station including government and personal stations which may have varying degrees of accuracy. Weather forecasts are derived from the NOAA NDFD. Like all things, this site belongs to Jesus Christ... He just trusts us to maintain it. If you have any questions or comments email webmaster@weatherforyou.com

Copyright © 2015, WeatherForYou.com LLC. All rights reserved.